SCP
0 0 0 0 0 0 0 0 0 0 0 0 0 0 0 0 0 0 0 0 0 0 0 0 0 0 0 0 0 0 0 0 0 0 0 0 0 0 0 0 0 0 0 0 0
0 0 0 0 0 0 0 0 0 0 0 0 0 0 0 0 0 0 0 0 0 0 0 0 0 0 0 0 0 0 0 0 0 0 0 0 0 0 0 0 0 0 0 0 0
0 0 0 0 0 0 0 0 0 0 0 0 0 0 0 0 0 -0 0 0 0 0 0 0 0 0 0 0 0 0 0 0 0 0 0 0 0 0 0 0 -0 -0 -0 0 0
0 0 0 0 0 0 0 0 0 0 0 0 0 0 0 0 0 0 0 0 0 0 0 0 0 0 0 0 0 0 0 0 0 0 0 0 0 0 0 0 -0 0 0 -0 -0
0 0 0 0 0 0 0 0 0 0 0 0 0 0 0 0 0 0 0 0 0 0 0 0 0 0 0 0 0 0 0 0 0 0 0 0 0 0 0 0 0 0 0 0 -0
0 0 0 0 0 0 0 0 0 0 0 0 0 0 0 0 0 0 0 0 0 0 0 0 0 0 0 0 0 0 0 0 0 0 0 0 0 0 0 0 0 0 0 0 0
0 0 0 0 0 0 0 0 0 0 0 0 0 0 0 0 0 0 0 0 0 0 0 0 0 0 0 0 0 0 0 0 0 0 0 0 0 0 0 0 0 0 0 0 0
0 0 0 0 0 0 0 0 0 -0 0 0 0 0 0 0 0 0 0 0 0 0 0 0 0 0 0 0 0 0 0 0 0 0 0 0 0 0 0 0 0 0 0 0 0
0 0 0 0 0 0 0 0 0 -0 0 0 0 0 0 0 0 0 0 0 0 0 0 0 0 0 0 0 0 0 0 0 0 0 0 0 0 0 0 0 0 0 0 0 0
0 0 0 0 0 0 0 0 -0 0 0 0 0 0 0 0 0 0 0 0 0 0 0 0 0 0 0 0 0 0 0 0 0 0 0 0 0 0 0 0 0 0 0 0 0
-0 -0 -0 0 0 0 0 0 0 0 0 -0 -0 0 0 0 0 0 0 0 0 0 0 0 0 0 0 0 0 0 0 0 0 0 0 0 0 0 0 0 0 0 0 0 0
-0 -0 -0 -0 0 0 0 0 0 0 0 -0 -0 -0 0 0 0 0 0 0 0 0 0 0 0 0 0 0 0 0 0 0 0 0 0 0 0 0 0 0 0 0 0 0 0
-0 0 -0 0 0 0 0 0 0 0 0 0 0 -0 0 0 0 0 0 0 0 0 0 0 0 0 0 0 0 0 0 0 0 0 0 0 0 0 0 0 0 0 0 0 0
-0 0 0 0 0 0 0 0 0 0 0 0 0 0 0 0 0 0 0 0 0 0 0 0 0 0 0 0 0 0 0 0 0 0 0 0 0 0 0 0 0 0 0 0 0
-0 0 0 0 0 0 0 0 0 0 0 0 0 0 0 0 0 0 0 0 0 0 0 0 0 0 0 0 0 0 0 0 0 0 0 0 0 0 0 0 0 0 0 0 0
0 0 0 0 0 0 -0 0 0 0 0 0 0 0 0 0 0 0 0 0 0 0 0 0 0 0 0 0 0 0 0 0 0 0 0 0 0 0 0 0 0 0 0 0 0
0 0 0 0 0 0 0 0 0 0 0 0 0 0 0 0 0 0 0 0 0 0 0 0 0 0 0 0 0 0 0 0 0 0 0 0 0 0 0 0 0 0 0 0 0
-0 -0 -0 0 -0 0 0 0 0 0 0 0 0 0 0 0 0 0 0 0 0 0 0 0 0 0 0 0 0 0 0 0 0 0 0 0 0 0 0 0 0 0 0 0 0
0 0 -0 -0 -0 -0 0 0 0 0 0 0 -0 0 0 0 0 0 0 0 0 0 0 0 0 0 0 0 0 0 0 0 0 0 0 0 0 0 0 0 0 0 0 0 0
0 0 0 0 -0 0 0 0 0 -0 0 -0 0 0 0 0 0 0 0 0 0 0 0 0 0 0 0 0 0 0 0 0 0 0 0 0 0 0 0 0 0 0 0 0 0
0 0 -0 -0 0 -0 0 0 0 -0 0 0 0 0 0 0 0 0 0 0 0 0 0 0 0 0 0 0 0 0 0 0 0 0 0 0 0 0 0 0 0 0 0 0 0
0 0 -0 0 -0 -0 0 0 0 0 0 -0 0 0 0 0 0 0 0 0 0 0 0 0 0 0 0 0 0 0 0 0 0 0 0 0 0 0 0 0 0 0 0 0 0
0 0 0 -0 -0 0 0 0 0 0 0 0 -0 0 0 0 0 0 0 0 0 0 0 0 0 0 0 0 0 0 0 0 0 0 0 0 0 0 0 0 0 0 0 0 0
0 0 0 -0 0 -0 0 -0 0 0 0 -0 0 -0 -0 0 0 0 0 0 0 0 0 0 0 0 0 0 0 0 0 0 0 0 0 0 0 0 0 0 0 0 0 0 0
0 0 0 0 -0 0 0 -0 -0 -0 -0 -0 0 -0 0 0 0 0 0 0 0 -0 0 0 0 0 0 0 0 0 0 0 0 0 0 0 0 0 0 0 0 0 0 0 0
0 0 0 0 0 -0 0 0 0 0 0 0 -0 0 -0 0 0 0 0 0 0 -0 0 0 0 0 0 0 0 0 0 0 0 0 0 0 0 0 0 0 0 0 0 0 0
0 0 0 0 0 -0 0 0 0 -0 -0 0 0 0 -0 0 0 0 0 0 0 0 0 0 0 0 0 0 0 0 0 0 0 0 0 0 0 0 0 0 0 0 0 0 0
Wind_Speed_500mb
14 13 12 13 14 14 13 15 15 16 20 22 23 26 29 30 28 21 14 16 21 17 12 15 12 14 11 7 4 1 7 3 2 7 5 2 5 8 14 22 16 10 20 34 48
14 15 14 14 15 16 17 14 16 16 18 18 20 19 20 26 27 28 25 22 20 21 15 10 14 11 6 5 5 7 6 6 5 4 1 2 2 17 10 21 17 34 37 44 47
13 14 13 12 13 15 16 18 14 15 16 17 17 13 13 13 20 17 22 25 27 24 20 10 5 6 4 5 6 8 9 6 4 9 7 4 9 4 30 6 21 36 41 36 43
14 12 14 12 11 13 14 14 16 16 15 15 15 12 10 11 11 8 9 15 18 22 21 17 9 6 6 6 6 4 4 3 8 3 7 4 6 12 8 6 20 31 33 30 28
19 16 13 13 11 11 13 13 14 16 15 13 12 13 10 15 16 8 9 8 15 23 24 21 17 8 7 3 7 3 2 3 7 15 8 17 10 14 25 34 36 34 26 29 25
20 20 18 16 13 10 11 15 12 13 13 12 13 13 13 10 15 26 18 9 9 19 28 27 13 16 9 5 4 1 8 6 6 5 10 13 9 7 16 39 43 40 33 28 25
22 21 21 18 14 11 10 13 11 8 10 11 11 13 13 30 9 11 22 26 14 14 21 25 25 17 13 2 10 5 7 6 3 1 5 6 10 12 13 34 50 51 46 41 36
22 24 22 17 11 11 11 12 9 5 7 11 11 11 13 14 28 22 17 23 30 17 19 11 20 18 10 4 5 7 10 8 9 3 2 4 4 16 10 59 54 54 52 47 38
24 24 21 17 12 9 10 11 6 3 6 8 9 9 14 9 25 28 26 12 20 27 17 12 19 8 9 10 7 1 8 8 5 16 2 8 6 28 35 63 47 49 42 41 36
25 23 21 18 12 8 9 9 5 3 2 10 11 5 18 2 13 19 28 25 12 25 15 13 10 4 2 10 26 26 27 9 10 9 32 28 14 19 41 59 48 46 41 37 33
27 24 20 14 9 6 8 3 1 2 11 12 12 8 4 2 9 13 18 31 17 19 11 14 8 24 19 8 12 18 33 21 5 9 24 14 20 16 29 45 44 40 39 38 35
27 22 17 14 8 4 3 2 1 4 10 20 27 27 33 20 7 21 26 26 17 10 10 7 23 9 12 10 11 22 30 18 12 16 16 12 20 17 28 19 29 35 36 35 31
25 22 16 14 8 5 2 3 2 7 4 7 17 24 33 18 13 14 34 33 10 13 17 10 3 20 13 12 18 9 26 13 18 18 14 18 5 1 14 27 32 32 32 33 32
29 21 17 14 9 6 5 0 3 2 8 7 5 7 14 15 14 39 39 25 8 22 13 9 10 30 14 24 21 22 13 23 36 31 10 21 7 14 7 10 18 23 28 29 32
29 22 18 14 7 9 3 5 3 4 7 7 4 5 1 20 8 19 36 47 10 11 12 12 10 13 23 23 17 10 18 24 18 8 17 21 5 4 28 15 16 23 28 28 31
27 22 17 10 7 7 2 7 5 11 9 8 5 5 2 11 9 7 29 30 15 9 6 14 6 15 13 9 14 18 20 18 7 5 10 24 14 10 20 24 22 24 32 33 33
23 18 9 7 5 7 10 6 9 7 8 13 5 10 11 10 7 2 5 19 11 11 9 9 7 4 9 14 15 18 33 5 9 9 8 20 10 6 15 29 35 41 40 36 36
18 11 6 6 15 14 8 9 8 9 9 4 5 17 9 14 10 6 7 15 13 2 8 12 14 13 7 7 18 32 13 10 13 12 8 5 11 5 5 33 46 49 47 40 36
17 17 15 15 10 9 7 6 12 8 5 10 17 5 5 2 2 8 10 7 3 18 6 11 8 1 2 5 18 11 11 6 11 7 6 8 4 10 9 17 38 46 45 40 36
20 19 16 5 1 2 8 6 4 2 7 4 5 2 5 4 4 10 9 2 5 2 5 7 6 1 3 6 3 9 17 7 4 13 7 4 6 7 22 26 23 33 45 41 36
13 6 4 3 2 1 5 5 6 9 8 5 4 7 8 5 5 5 5 1 2 8 9 6 1 1 4 3 13 7 10 9 7 2 8 9 10 11 37 33 31 38 50 47 40
7 4 1 5 2 5 4 6 2 7 6 7 5 4 5 8 6 5 6 3 6 2 7 6 4 8 4 1 4 2 10 9 7 6 3 3 7 10 29 39 44 47 50 43 38
7 6 4 7 4 3 7 6 3 4 6 4 5 6 4 7 4 8 5 3 6 5 2 5 6 6 14 6 7 5 1 7 10 7 10 8 6 9 33 38 49 55 49 45 40
6 3 5 6 4 10 5 4 7 8 9 9 6 5 6 3 7 6 4 7 7 5 11 5 4 2 2 2 5 11 7 7 9 7 7 6 11 11 26 30 40 51 48 44 40
4 3 5 2 5 3 5 6 5 8 7 17 4 12 7 5 6 7 2 5 10 5 4 4 7 5 9 9 0 6 14 10 8 7 9 12 20 32 35 33 49 54 47 43 39
7 11 9 7 3 5 2 2 6 8 3 7 6 13 13 6 9 6 8 4 1 14 3 4 6 3 14 20 10 9 6 9 12 8 12 13 2 15 33 53 51 53 49 45 42
11 17 10 2 2 5 5 7 4 5 3 10 4 3 13 4 7 13 11 9 3 2 3 5 7 6 3 8 8 8 7 3 7 4 15 11 13 37 16 39 56 54 49 47 43
Wind_Direction_500mb
286 290 303 322 328 320 295 269 270 270 269 274 280 274 266 270 267 270 247 222 232 242 247 265 251 268 271 281 240 258 63 146 174 198 258 82 108 92 111 104 78 82 143 154 161
284 285 290 303 318 319 311 289 272 274 268 268 274 282 275 267 274 268 251 241 233 246 248 270 235 257 264 263 243 116 125 200 223 208 172 225 37 129 106 100 73 99 120 150 162
285 287 285 294 305 314 316 312 282 269 280 269 271 274 277 266 283 260 242 235 237 239 236 226 245 216 268 269 225 169 167 252 293 198 356 148 86 101 133 84 169 158 146 157 173
278 275 281 289 305 322 323 314 305 281 271 279 266 266 245 191 217 130 166 203 215 218 212 201 191 196 191 238 245 191 184 228 263 324 24 31 85 79 107 162 163 147 137 141 151
268 262 262 276 300 316 336 327 307 298 276 271 262 251 223 215 231 195 139 145 205 212 200 192 181 187 201 242 335 151 218 61 112 124 169 95 80 120 98 114 129 127 122 118 115
250 253 252 265 281 300 323 333 316 291 277 260 250 241 226 231 234 232 229 177 190 205 198 191 185 185 248 219 161 116 188 194 332 89 82 118 112 77 132 136 125 123 124 127 123
249 242 248 251 271 297 317 331 325 291 269 248 246 240 233 235 213 214 243 241 221 210 193 193 196 193 199 179 191 130 96 85 161 25 61 124 45 51 134 138 124 121 120 123 109
236 234 241 248 259 290 316 330 327 271 267 233 233 239 249 256 223 212 212 227 215 203 204 185 192 197 183 168 177 127 71 129 326 151 32 119 107 333 63 132 114 111 111 112 108
225 229 237 240 254 281 314 326 315 273 263 220 212 221 263 241 230 227 222 202 204 202 201 190 189 197 184 155 111 125 161 148 103 19 271 59 72 352 113 130 106 105 102 101 99
207 217 228 234 247 277 313 323 288 249 225 198 195 215 244 272 242 235 224 207 182 195 192 182 185 172 188 162 195 185 193 200 124 354 84 77 57 26 65 100 99 97 94 90 87
195 203 216 222 226 272 309 326 135 229 205 216 201 230 208 301 211 235 217 189 201 182 172 186 161 208 194 159 125 148 179 205 183 103 69 71 78 54 63 84 87 89 88 84 81
186 193 198 196 202 256 276 134 60 305 301 246 240 247 250 287 298 229 196 193 194 179 171 155 225 187 167 218 174 166 177 169 122 128 84 64 72 59 52 66 89 98 93 91 95
176 179 178 177 182 187 219 161 178 331 274 289 236 248 244 248 243 239 202 208 198 175 199 191 246 173 185 186 206 196 178 174 140 131 77 119 320 60 70 79 88 86 93 93 96
163 159 163 168 164 190 224 156 305 301 50 279 246 271 222 209 251 226 209 197 240 196 164 239 261 185 181 205 198 201 164 144 143 156 173 173 181 190 153 99 83 94 97 98 104
141 150 160 170 182 207 267 112 318 138 28 273 251 278 203 196 309 217 207 207 211 196 158 212 197 177 198 194 176 194 106 133 149 128 119 184 151 206 155 177 154 129 113 112 108
137 148 167 183 197 244 210 133 142 46 266 331 291 302 178 233 281 271 192 196 210 249 243 203 226 179 200 156 187 142 92 60 87 45 209 183 178 194 186 180 157 147 139 134 126
138 144 160 193 214 161 134 152 43 123 321 308 334 322 318 193 251 280 148 187 178 186 204 181 196 248 178 119 154 137 144 133 180 191 240 162 167 217 200 167 161 155 148 142 133
130 129 180 195 137 124 150 52 88 241 247 312 293 288 240 180 222 145 138 185 229 105 148 165 202 184 188 203 177 167 166 156 186 171 159 173 212 278 138 148 148 154 148 144 139
108 107 111 123 128 169 201 64 202 233 297 319 310 299 277 280 181 166 170 159 261 191 218 188 222 275 174 136 163 175 190 59 102 32 109 139 10 360 72 117 138 147 150 145 141
118 98 100 138 145 221 75 184 259 273 303 234 278 240 292 276 227 153 172 136 189 74 251 193 159 310 147 125 54 182 128 102 65 159 173 144 205 205 182 172 161 156 154 151 148
127 111 84 159 286 59 108 204 270 270 245 259 302 296 304 291 269 107 93 104 262 199 260 155 4 273 154 164 166 144 178 133 105 305 134 139 243 202 182 180 169 164 162 160 157
156 83 93 200 353 36 127 189 253 289 263 267 262 266 270 288 213 117 145 76 179 287 193 108 153 189 159 102 284 273 158 145 124 183 51 121 237 319 176 169 161 162 166 165 161
146 128 17 193 135 307 309 297 247 302 284 298 287 237 272 280 291 112 136 112 76 65 211 107 229 140 136 33 335 162 132 116 91 78 170 151 249 31 138 148 164 163 166 165 162
158 56 76 88 63 129 136 310 325 301 284 317 353 288 286 302 21 110 123 176 122 82 345 192 57 118 162 259 135 143 137 118 125 115 163 195 159 172 160 160 161 166 167 167 170
144 133 121 245 342 105 121 151 19 347 329 6 58 357 283 21 12 26 13 102 155 144 21 147 104 98 82 327 53 124 150 145 97 148 152 190 175 191 177 164 166 168 168 170 177
185 144 125 131 207 111 44 290 172 294 356 326 62 360 44 75 20 15 339 17 239 197 295 5 118 83 36 10 44 77 109 133 120 120 83 124 275 132 158 163 168 173 174 180 184
177 151 142 129 208 80 203 184 188 197 126 64 292 103 47 32 351 325 44 44 40 341 87 350 117 55 46 352 23 110 247 117 146 150 146 167 203 154 159 171 174 177 183 187 194
Wind_Speed_850mb
14 13 12 13 14 14 13 15 15 16 20 22 23 26 29 30 28 21 14 16 21 17 12 15 12 14 11 7 4 1 7 3 2 7 5 2 5 8 14 22 16 10 20 34 48
14 15 14 14 15 16 17 14 16 16 18 18 20 19 20 26 27 28 25 22 20 21 15 10 14 11 6 5 5 7 6 6 5 4 1 2 2 17 10 21 17 34 37 44 47
13 14 13 12 13 15 16 18 14 15 16 17 17 13 13 13 20 17 22 25 27 24 20 10 5 6 4 5 6 8 9 6 4 9 7 4 9 4 30 6 21 36 41 36 43
14 12 14 12 11 13 14 14 16 16 15 15 15 12 10 11 11 8 9 15 18 22 21 17 9 6 6 6 6 4 4 3 8 3 7 4 6 12 8 6 20 31 33 30 28
19 16 13 13 11 11 13 13 14 16 15 13 12 13 10 15 16 8 9 8 15 23 24 21 17 8 7 3 7 3 2 3 7 15 8 17 10 14 25 34 36 34 26 29 25
20 20 18 16 13 10 11 15 12 13 13 12 13 13 13 10 15 26 18 9 9 19 28 27 13 16 9 5 4 1 8 6 6 5 10 13 9 7 16 39 43 40 33 28 25
22 21 21 18 14 11 10 13 11 8 10 11 11 13 13 30 9 11 22 26 14 14 21 25 25 17 13 2 10 5 7 6 3 1 5 6 10 12 13 34 50 51 46 41 36
22 24 22 17 11 11 11 12 9 5 7 11 11 11 13 14 28 22 17 23 30 17 19 11 20 18 10 4 5 7 10 8 9 3 2 4 4 16 10 59 54 54 52 47 38
24 24 21 17 12 9 10 11 6 3 6 8 9 9 14 9 25 28 26 12 20 27 17 12 19 8 9 10 7 1 8 8 5 16 2 8 6 28 35 63 47 49 42 41 36
25 23 21 18 12 8 9 9 5 3 2 10 11 5 18 2 13 19 28 25 12 25 15 13 10 4 2 10 26 26 27 9 10 9 32 28 14 19 41 59 48 46 41 37 33
27 24 20 14 9 6 8 3 1 2 11 12 12 8 4 2 9 13 18 31 17 19 11 14 8 24 19 8 12 18 33 21 5 9 24 14 20 16 29 45 44 40 39 38 35
27 22 17 14 8 4 3 2 1 4 10 20 27 27 33 20 7 21 26 26 17 10 10 7 23 9 12 10 11 22 30 18 12 16 16 12 20 17 28 19 29 35 36 35 31
25 22 16 14 8 5 2 3 2 7 4 7 17 24 33 18 13 14 34 33 10 13 17 10 3 20 13 12 18 9 26 13 18 18 14 18 5 1 14 27 32 32 32 33 32
29 21 17 14 9 6 5 0 3 2 8 7 5 7 14 15 14 39 39 25 8 22 13 9 10 30 14 24 21 22 13 23 36 31 10 21 7 14 7 10 18 23 28 29 32
29 22 18 14 7 9 3 5 3 4 7 7 4 5 1 20 8 19 36 47 10 11 12 12 10 13 23 23 17 10 18 24 18 8 17 21 5 4 28 15 16 23 28 28 31
27 22 17 10 7 7 2 7 5 11 9 8 5 5 2 11 9 7 29 30 15 9 6 14 6 15 13 9 14 18 20 18 7 5 10 24 14 10 20 24 22 24 32 33 33
23 18 9 7 5 7 10 6 9 7 8 13 5 10 11 10 7 2 5 19 11 11 9 9 7 4 9 14 15 18 33 5 9 9 8 20 10 6 15 29 35 41 40 36 36
18 11 6 6 15 14 8 9 8 9 9 4 5 17 9 14 10 6 7 15 13 2 8 12 14 13 7 7 18 32 13 10 13 12 8 5 11 5 5 33 46 49 47 40 36
17 17 15 15 10 9 7 6 12 8 5 10 17 5 5 2 2 8 10 7 3 18 6 11 8 1 2 5 18 11 11 6 11 7 6 8 4 10 9 17 38 46 45 40 36
20 19 16 5 1 2 8 6 4 2 7 4 5 2 5 4 4 10 9 2 5 2 5 7 6 1 3 6 3 9 17 7 4 13 7 4 6 7 22 26 23 33 45 41 36
13 6 4 3 2 1 5 5 6 9 8 5 4 7 8 5 5 5 5 1 2 8 9 6 1 1 4 3 13 7 10 9 7 2 8 9 10 11 37 33 31 38 50 47 40
7 4 1 5 2 5 4 6 2 7 6 7 5 4 5 8 6 5 6 3 6 2 7 6 4 8 4 1 4 2 10 9 7 6 3 3 7 10 29 39 44 47 50 43 38
7 6 4 7 4 3 7 6 3 4 6 4 5 6 4 7 4 8 5 3 6 5 2 5 6 6 14 6 7 5 1 7 10 7 10 8 6 9 33 38 49 55 49 45 40
6 3 5 6 4 10 5 4 7 8 9 9 6 5 6 3 7 6 4 7 7 5 11 5 4 2 2 2 5 11 7 7 9 7 7 6 11 11 26 30 40 51 48 44 40
4 3 5 2 5 3 5 6 5 8 7 17 4 12 7 5 6 7 2 5 10 5 4 4 7 5 9 9 0 6 14 10 8 7 9 12 20 32 35 33 49 54 47 43 39
7 11 9 7 3 5 2 2 6 8 3 7 6 13 13 6 9 6 8 4 1 14 3 4 6 3 14 20 10 9 6 9 12 8 12 13 2 15 33 53 51 53 49 45 42
11 17 10 2 2 5 5 7 4 5 3 10 4 3 13 4 7 13 11 9 3 2 3 5 7 6 3 8 8 8 7 3 7 4 15 11 13 37 16 39 56 54 49 47 43
Wind_Direction_850mb
286 290 303 322 328 320 295 269 270 270 269 274 280 274 266 270 267 270 247 222 232 242 247 265 251 268 271 281 240 258 63 146 174 198 258 82 108 92 111 104 78 82 143 154 161
284 285 290 303 318 319 311 289 272 274 268 268 274 282 275 267 274 268 251 241 233 246 248 270 235 257 264 263 243 116 125 200 223 208 172 225 37 129 106 100 73 99 120 150 162
285 287 285 294 305 314 316 312 282 269 280 269 271 274 277 266 283 260 242 235 237 239 236 226 245 216 268 269 225 169 167 252 293 198 356 148 86 101 133 84 169 158 146 157 173
278 275 281 289 305 322 323 314 305 281 271 279 266 266 245 191 217 130 166 203 215 218 212 201 191 196 191 238 245 191 184 228 263 324 24 31 85 79 107 162 163 147 137 141 151
268 262 262 276 300 316 336 327 307 298 276 271 262 251 223 215 231 195 139 145 205 212 200 192 181 187 201 242 335 151 218 61 112 124 169 95 80 120 98 114 129 127 122 118 115
250 253 252 265 281 300 323 333 316 291 277 260 250 241 226 231 234 232 229 177 190 205 198 191 185 185 248 219 161 116 188 194 332 89 82 118 112 77 132 136 125 123 124 127 123
249 242 248 251 271 297 317 331 325 291 269 248 246 240 233 235 213 214 243 241 221 210 193 193 196 193 199 179 191 130 96 85 161 25 61 124 45 51 134 138 124 121 120 123 109
236 234 241 248 259 290 316 330 327 271 267 233 233 239 249 256 223 212 212 227 215 203 204 185 192 197 183 168 177 127 71 129 326 151 32 119 107 333 63 132 114 111 111 112 108
225 229 237 240 254 281 314 326 315 273 263 220 212 221 263 241 230 227 222 202 204 202 201 190 189 197 184 155 111 125 161 148 103 19 271 59 72 352 113 130 106 105 102 101 99
207 217 228 234 247 277 313 323 288 249 225 198 195 215 244 272 242 235 224 207 182 195 192 182 185 172 188 162 195 185 193 200 124 354 84 77 57 26 65 100 99 97 94 90 87
195 203 216 222 226 272 309 326 135 229 205 216 201 230 208 301 211 235 217 189 201 182 172 186 161 208 194 159 125 148 179 205 183 103 69 71 78 54 63 84 87 89 88 84 81
186 193 198 196 202 256 276 134 60 305 301 246 240 247 250 287 298 229 196 193 194 179 171 155 225 187 167 218 174 166 177 169 122 128 84 64 72 59 52 66 89 98 93 91 95
176 179 178 177 182 187 219 161 178 331 274 289 236 248 244 248 243 239 202 208 198 175 199 191 246 173 185 186 206 196 178 174 140 131 77 119 320 60 70 79 88 86 93 93 96
163 159 163 168 164 190 224 156 305 301 50 279 246 271 222 209 251 226 209 197 240 196 164 239 261 185 181 205 198 201 164 144 143 156 173 173 181 190 153 99 83 94 97 98 104
141 150 160 170 182 207 267 112 318 138 28 273 251 278 203 196 309 217 207 207 211 196 158 212 197 177 198 194 176 194 106 133 149 128 119 184 151 206 155 177 154 129 113 112 108
137 148 167 183 197 244 210 133 142 46 266 331 291 302 178 233 281 271 192 196 210 249 243 203 226 179 200 156 187 142 92 60 87 45 209 183 178 194 186 180 157 147 139 134 126
138 144 160 193 214 161 134 152 43 123 321 308 334 322 318 193 251 280 148 187 178 186 204 181 196 248 178 119 154 137 144 133 180 191 240 162 167 217 200 167 161 155 148 142 133
130 129 180 195 137 124 150 52 88 241 247 312 293 288 240 180 222 145 138 185 229 105 148 165 202 184 188 203 177 167 166 156 186 171 159 173 212 278 138 148 148 154 148 144 139
108 107 111 123 128 169 201 64 202 233 297 319 310 299 277 280 181 166 170 159 261 191 218 188 222 275 174 136 163 175 190 59 102 32 109 139 10 360 72 117 138 147 150 145 141
118 98 100 138 145 221 75 184 259 273 303 234 278 240 292 276 227 153 172 136 189 74 251 193 159 310 147 125 54 182 128 102 65 159 173 144 205 205 182 172 161 156 154 151 148
127 111 84 159 286 59 108 204 270 270 245 259 302 296 304 291 269 107 93 104 262 199 260 155 4 273 154 164 166 144 178 133 105 305 134 139 243 202 182 180 169 164 162 160 157
156 83 93 200 353 36 127 189 253 289 263 267 262 266 270 288 213 117 145 76 179 287 193 108 153 189 159 102 284 273 158 145 124 183 51 121 237 319 176 169 161 162 166 165 161
146 128 17 193 135 307 309 297 247 302 284 298 287 237 272 280 291 112 136 112 76 65 211 107 229 140 136 33 335 162 132 116 91 78 170 151 249 31 138 148 164 163 166 165 162
158 56 76 88 63 129 136 310 325 301 284 317 353 288 286 302 21 110 123 176 122 82 345 192 57 118 162 259 135 143 137 118 125 115 163 195 159 172 160 160 161 166 167 167 170
144 133 121 245 342 105 121 151 19 347 329 6 58 357 283 21 12 26 13 102 155 144 21 147 104 98 82 327 53 124 150 145 97 148 152 190 175 191 177 164 166 168 168 170 177
185 144 125 131 207 111 44 290 172 294 356 326 62 360 44 75 20 15 339 17 239 197 295 5 118 83 36 10 44 77 109 133 120 120 83 124 275 132 158 163 168 173 174 180 184
177 151 142 129 208 80 203 184 188 197 126 64 292 103 47 32 351 325 44 44 40 341 87 350 117 55 46 352 23 110 247 117 146 150 146 167 203 154 159 171 174 177 183 187 194